FENTRESS NALF, VA

3:38 AM EDT on September 25, 2017 (GMT -0400)
Fentress Naval Air Landing Field

Weather History for KNFE - April, 2014

Change the Weather History Date:

Tuesday, April 22, 2014

  Actual Average (KNTU) Record (KNTU)
Temperature  
Mean Temperature 64 °F -  
Max Temperature 88 °F 66 °F 88 °F (1999)
Min Temperature 42 °F 47 °F 39 °F (2014)
Growing Degree Days 14 (Base 50)    
Moisture  
Dew Point 44 °F    
Average Humidity 61    
Maximum Humidity 85    
Minimum Humidity 23    
Precipitation  
Precipitation 0.00 in - - ()
Sea Level Pressure  
Sea Level Pressure 29.77 in    
Wind  
Wind Speed 2 mph (SSW)    
Max Wind Speed 14 mph    
Max Gust Speed 20 mph    
Visibility 8 miles    
Events      
Averages and records for this station are not official NWS values.
T = Trace of Precipitation, MM = Missing Value Source: NWS Daily Summary

Daily Weather History Graph

Daily Weather History Graph

Search for Another Location

Airport or City:

Trip Planner

Search our weather history database for the weather conditions in past years. The results will help you decide how hot, cold, wet, or windy it might be!

Date:

Astronomy

Apr. 22, 2014 Rise Set
Actual Time 6:21 AM EDT 7:45 PM EDT
Civil Twilight 5:54 AM EDT 8:12 PM EDT
Nautical Twilight 5:22 AM EDT 8:44 PM EDT
Astronomical Twilight 4:48 AM EDT 9:18 PM EDT
Moon 1:57 AM EDT (4/22) 12:54 PM EDT (4/22)
Length of Visible Light 14h 17m
Length of Day
13h 23m
Last Quarter, 46% of the Moon is Illuminated
Apr 22
Last Quarter
Apr 29
New
May 6
First Quarter
May 14
Full
May 21
Last Quarter

Hourly Weather History & Observations

Time (EDT) Temp. Dew Point Humidity Pressure Visibility Wind Dir Wind Speed Gust Speed Precip Events Conditions
12:56 AM 48.0 °F 43.0 °F 83% 29.92 in 7.0 mi Calm Calm - N/A   Clear
1:33 AM 46.0 °F 41.0 °F 83% 29.90 in 1.8 mi Calm Calm - N/A   Haze
1:43 AM 46.0 °F 41.0 °F 83% 29.90 in 0.8 mi Calm Calm - N/A   Haze
1:45 AM 46.0 °F 41.0 °F 83% 29.89 in 1.0 mi Calm Calm - N/A   Haze
1:54 AM 44.6 °F 39.2 °F 81% 29.89 in 2.0 mi Calm Calm - N/A   Haze
1:56 AM 45.0 °F 39.9 °F 82% 29.90 in 1.5 mi Calm Calm - N/A   Haze
2:05 AM 45.0 °F 39.9 °F 82% 29.89 in 3.0 mi Calm Calm - N/A   Haze
2:56 AM 45.0 °F 39.9 °F 82% 29.88 in 8.0 mi Calm Calm - N/A   Mostly Cloudy
3:17 AM 45.0 °F 39.0 °F 80% 29.87 in 9.0 mi Calm Calm - N/A   Partly Cloudy
3:56 AM 44.1 °F 39.0 °F 82% 29.86 in 10.0 mi Calm Calm - N/A   Clear
4:09 AM 42.1 °F 37.9 °F 85% 29.85 in 8.0 mi Calm Calm - N/A   Scattered Clouds
4:17 AM 42.1 °F 37.9 °F 85% 29.84 in 9.0 mi Calm Calm - N/A   Mostly Cloudy
4:38 AM 44.1 °F 39.0 °F 82% 29.84 in 10.0 mi Calm Calm - N/A   Scattered Clouds
4:56 AM 45.0 °F 39.9 °F 82% 29.84 in 9.0 mi Calm Calm - N/A   Clear
5:56 AM 46.0 °F 41.0 °F 83% 29.85 in 10.0 mi Calm Calm - N/A   Clear
6:56 AM 45.0 °F 39.9 °F 82% 29.83 in 10.0 mi Calm Calm - N/A   Clear
7:56 AM 53.1 °F 46.9 °F 80% 29.83 in 10.0 mi SSW 5.8 mph - N/A   Clear
8:56 AM 61.0 °F 48.9 °F 64% 29.82 in 10.0 mi South 6.9 mph - N/A   Clear
9:56 AM 68.0 °F 48.0 °F 49% 29.79 in 10.0 mi South 8.1 mph - N/A   Clear
10:56 AM 73.0 °F 46.9 °F 39% 29.77 in 10.0 mi SSW 8.1 mph 16.1 mph N/A   Clear
11:56 AM 77.0 °F 46.9 °F 34% 29.74 in 10.0 mi South 9.2 mph - N/A   Clear
12:56 PM 81.0 °F 46.9 °F 30% 29.70 in 10.0 mi SSW 13.8 mph 19.6 mph N/A   Clear
1:56 PM 82.9 °F 46.9 °F 28% 29.68 in 10.0 mi South 10.4 mph 18.4 mph N/A   Clear
2:56 PM 84.0 °F 48.0 °F 28% 29.65 in 10.0 mi SSW 10.4 mph 19.6 mph N/A   Clear
3:56 PM 84.0 °F 46.9 °F 27% 29.62 in 10.0 mi WSW 8.1 mph - N/A   Clear
4:56 PM 87.1 °F 45.0 °F 23% 29.61 in 10.0 mi Variable 6.9 mph - N/A   Clear
5:56 PM 84.9 °F 46.9 °F 27% 29.60 in 10.0 mi Variable 3.5 mph - N/A   Partly Cloudy
6:56 PM 82.0 °F 46.9 °F 29% 29.60 in 10.0 mi Variable 4.6 mph - N/A   Mostly Cloudy
7:56 PM 78.1 °F 50.0 °F 37% 29.60 in 10.0 mi WSW 3.5 mph - N/A   Overcast
8:56 PM 75.9 °F 50.0 °F 40% 29.63 in 10.0 mi North 3.5 mph - N/A   Overcast
9:56 PM 72.0 °F 51.1 °F 48% 29.64 in 10.0 mi Calm Calm - N/A   Overcast
10:56 PM 70.0 °F 52.0 °F 53% 29.63 in 10.0 mi Calm Calm - N/A   Mostly Cloudy
11:56 PM 70.0 °F 53.1 °F 55% 29.64 in 10.0 mi Calm Calm - N/A   Overcast